Durant, OK

1:22 PM CST on December 08, 2019 (GMT -0600)
Eaker

Weather History for KDUA - October, 2019

Change the Weather History Date:

Monday, October 7, 2019

  Actual Average (KMLC) Record (KMLC)
Temperature  
Mean Temperature 66 °F -  
Max Temperature 78 °F 74 °F 97 °F (1963)
Min Temperature 55 °F 51 °F 35 °F (2000)
Cooling Degree Days 2    
Growing Degree Days 16 (Base 50)    
Moisture  
Dew Point 48 °F    
Average Humidity 59    
Maximum Humidity 88    
Minimum Humidity 29    
Precipitation  
Precipitation 0.00 in - - ()
Sea Level Pressure  
Sea Level Pressure 30.21 in    
Wind  
Wind Speed 13 mph (NNE)    
Max Wind Speed 18 mph    
Max Gust Speed 26 mph    
Visibility 10 miles    
Events      
Averages and records for this station are not official NWS values.
T = Trace of Precipitation, MM = Missing Value Source: NWS Daily Summary

Daily Weather History Graph

Daily Weather History Graph

Search for Another Location

Airport or City:

Astronomy

Oct. 07, 2019 Rise Set
Actual Time 7:24 AM CDT 7:02 PM CDT
Civil Twilight 6:59 AM CDT 7:26 PM CDT
Nautical Twilight 6:30 AM CDT 7:55 PM CDT
Astronomical Twilight 6:01 AM CDT 8:24 PM CDT
Moon 4:05 PM CDT (10/7) 1:38 AM CDT (10/7)
Length of Visible Light 12h 27m
Length of Day
11h 37m
Waxing Gibbous, 69% of the Moon is Illuminated
Oct 7
Waxing Gibbous
Oct 13
Full
Oct 21
Last Quarter
Oct 27
New
Nov 4
First Quarter

Hourly Weather History & Observations

Time (CDT) Temp. Dew Point Humidity Pressure Visibility Wind Dir Wind Speed Gust Speed Precip Events Conditions
12:17 AM 62.6 °F 48.2 °F 59% 30.15 in 10.0 mi North 18.4 mph 26.5 mph N/A   Overcast
12:54 AM 62.6 °F 48.2 °F 59% 30.14 in 10.0 mi NNE 17.3 mph 20.7 mph N/A   Overcast
1:16 AM 62.6 °F 48.2 °F 59% 30.14 in 10.0 mi North 15.0 mph 21.9 mph N/A   Overcast
1:54 AM 62.6 °F 48.2 °F 59% 30.15 in 10.0 mi North 12.7 mph - N/A   Clear
2:35 AM 60.8 °F 48.2 °F 63% 30.16 in 10.0 mi North 13.8 mph - N/A   Clear
2:56 AM 60.8 °F 48.2 °F 63% 30.16 in 10.0 mi NNW 15.0 mph 18.4 mph N/A   Clear
3:14 AM 60.8 °F 48.2 °F 63% 30.16 in 10.0 mi North 16.1 mph - N/A   Clear
3:34 AM 59.0 °F 48.2 °F 67% 30.17 in 10.0 mi North 15.0 mph 21.9 mph N/A   Clear
4:34 AM 59.0 °F 50.0 °F 72% 30.18 in 10.0 mi North 12.7 mph - N/A   Clear
4:54 AM 57.2 °F 50.0 °F 77% 30.18 in 10.0 mi North 12.7 mph 19.6 mph N/A   Clear
5:14 AM 57.2 °F 50.0 °F 77% 30.19 in 10.0 mi North 13.8 mph - N/A   Clear
5:37 AM 57.2 °F 50.0 °F 77% 30.19 in 10.0 mi North 16.1 mph - N/A   Clear
5:56 AM 57.2 °F 50.0 °F 77% 30.20 in 10.0 mi North 15.0 mph 19.6 mph N/A   Clear
6:14 AM 57.2 °F 50.0 °F 77% 30.20 in 10.0 mi North 13.8 mph 18.4 mph N/A   Clear
7:15 AM 55.4 °F 51.8 °F 88% 30.23 in 10.0 mi North 10.4 mph - N/A   Clear
7:34 AM 55.4 °F 51.8 °F 88% 30.24 in 10.0 mi North 10.4 mph 17.3 mph N/A   Clear
7:55 AM 55.4 °F 51.8 °F 88% 30.24 in 10.0 mi North 10.4 mph - N/A   Clear
8:14 AM 57.2 °F 51.8 °F 82% 30.24 in 10.0 mi NNE 10.4 mph - N/A   Clear
8:37 AM 57.2 °F 51.8 °F 82% 30.25 in 10.0 mi North 12.7 mph 17.3 mph N/A   Clear
8:56 AM 59.0 °F 51.8 °F 77% 30.26 in 10.0 mi NNE 10.4 mph - N/A   Clear
9:16 AM 60.8 °F 51.8 °F 72% 30.26 in 10.0 mi NNE 15.0 mph 19.6 mph N/A   Clear
9:34 AM 62.6 °F 51.8 °F 68% 30.27 in 10.0 mi NNE 13.8 mph - N/A   Clear
9:55 AM 64.4 °F 51.8 °F 64% 30.27 in 10.0 mi NNE 16.1 mph 19.6 mph N/A   Clear
10:34 AM 66.2 °F 50.0 °F 56% 30.28 in 10.0 mi NE 13.8 mph 19.6 mph N/A   Clear
11:17 AM 69.8 °F 48.2 °F 46% 30.28 in 10.0 mi NE 16.1 mph 23.0 mph N/A   Clear
11:35 AM 69.8 °F 48.2 °F 46% 30.27 in 10.0 mi NNE 16.1 mph - N/A   Clear
11:55 AM 71.6 °F 46.4 °F 41% 30.27 in 10.0 mi NNE 17.3 mph 23.0 mph N/A   Clear
12:35 PM 73.4 °F 46.4 °F 38% 30.26 in 10.0 mi NE 13.8 mph 21.9 mph N/A   Clear
12:55 PM 73.4 °F 46.4 °F 38% 30.25 in 10.0 mi NE 11.5 mph 21.9 mph N/A   Clear
1:16 PM 75.2 °F 46.4 °F 36% 30.24 in 10.0 mi NE 8.1 mph 18.4 mph N/A   Clear
1:35 PM 75.2 °F 44.6 °F 34% 30.23 in 10.0 mi North 6.9 mph 20.7 mph N/A   Clear
2:17 PM 75.2 °F 44.6 °F 34% 30.21 in 10.0 mi NE 6.9 mph 19.6 mph N/A   Clear
2:35 PM 77.0 °F 44.6 °F 32% 30.20 in 10.0 mi NE 16.1 mph 20.7 mph N/A   Clear
3:35 PM 78.8 °F 44.6 °F 30% 30.19 in 10.0 mi NNE 11.5 mph 19.6 mph N/A   Clear
3:55 PM 77.0 °F 42.8 °F 29% 30.18 in 10.0 mi North 11.5 mph 17.3 mph N/A   Clear
4:35 PM 77.0 °F 42.8 °F 29% 30.18 in 10.0 mi NNE 10.4 mph 17.3 mph N/A   Clear
5:16 PM 77.0 °F 42.8 °F 29% 30.18 in 10.0 mi NE 11.5 mph - N/A   Clear
6:55 PM 71.6 °F 46.4 °F 41% 30.17 in 10.0 mi NE 5.8 mph - N/A   Clear
7:16 PM 68.0 °F 46.4 °F 46% 30.17 in 10.0 mi NE 6.9 mph - N/A   Clear
7:37 PM 66.2 °F 46.4 °F 49% 30.18 in 10.0 mi NNE 3.5 mph - N/A   Clear
7:55 PM 64.4 °F 48.2 °F 56% 30.18 in 10.0 mi NNE 5.8 mph - N/A   Clear
8:15 PM 64.4 °F 48.2 °F 56% 30.18 in 10.0 mi NNE 6.9 mph - N/A   Clear
8:37 PM 62.6 °F 48.2 °F 59% 30.18 in 10.0 mi NNW 5.8 mph - N/A   Clear
8:55 PM 62.6 °F 48.2 °F 59% 30.19 in 10.0 mi NNE 4.6 mph - N/A   Clear
9:15 PM 62.6 °F 50.0 °F 63% 30.19 in 10.0 mi NNE 5.8 mph - N/A   Clear
9:35 PM 60.8 °F 50.0 °F 68% 30.20 in 10.0 mi NNE 6.9 mph - N/A   Clear
10:35 PM 59.0 °F 48.2 °F 67% 30.20 in 10.0 mi NNE 6.9 mph - N/A   Clear
10:56 PM 57.2 °F 48.2 °F 72% 30.20 in 10.0 mi NE 6.9 mph - N/A   Clear
11:37 PM 57.2 °F 46.4 °F 67% 30.18 in 10.0 mi NNE 3.5 mph - N/A   Clear
11:56 PM 55.4 °F 48.2 °F 77% 30.19 in 10.0 mi Calm Calm - N/A   Clear